Wetbulb
46.25 44.86 42.47 45.15 45.71 47.37 46.60 46.22 45.21 45.60 46.23 46.34 47.46 46.77 48.64 51.43 50.49 50.16 52.12 52.78 53.22 53.98 56.94 58.80 60.36 61.46 60.60 60.98 61.71 61.25 59.43 58.90 57.38 55.96 55.33 53.94 52.85 53.33 52.73 53.33 54.13 54.11 54.09 53.75
43.09 39.27 42.46 46.18 46.01 45.32 45.89 43.38 42.07 43.76 44.32 45.36 44.34 42.81 44.34 46.13 47.02 48.20 48.62 50.18 51.42 52.43 53.74 55.14 56.32 58.01 59.33 59.63 59.91 60.39 60.21 59.79 58.54 57.58 56.90 57.18 56.55 55.01 53.47 53.42 52.78 53.36 53.04 53.15
39.28 39.56 42.36 42.77 45.06 42.66 40.97 43.53 42.22 42.14 42.02 43.03 41.45 39.74 42.74 45.40 46.82 47.80 48.84 49.59 49.84 49.67 49.92 51.38 52.49 54.13 55.82 56.89 58.21 58.73 59.12 59.42 59.35 58.48 57.87 56.87 55.54 53.88 52.26 52.40 52.32 52.08 50.67 50.48
40.36 42.79 41.55 42.38 41.31 45.13 39.33 44.45 43.28 40.81 39.25 36.55 41.03 33.67 40.18 43.50 43.92 44.89 45.52 46.78 47.17 47.51 48.55 49.90 50.62 51.36 52.66 53.78 55.78 56.86 57.51 57.59 58.23 58.18 56.69 55.47 54.10 53.15 54.50 54.64 55.16 52.21 49.19 48.01
37.22 40.04 40.80 39.40 39.08 43.35 39.04 43.61 41.86 41.10 39.29 38.44 37.09 37.91 38.52 42.99 40.31 41.55 44.16 45.74 46.81 47.73 48.77 49.26 49.96 50.88 52.02 52.75 53.14 54.20 54.70 55.34 56.13 56.60 56.46 55.41 53.91 54.62 54.86 54.60 53.69 51.04 48.30 46.94
39.65 42.86 41.48 41.35 42.69 43.76 43.84 41.25 40.21 40.00 38.43 33.52 34.21 35.63 36.97 39.13 39.37 41.46 43.58 44.79 46.21 48.17 49.56 50.23 51.01 51.61 51.51 52.37 52.26 52.46 52.41 52.85 54.17 54.84 55.13 54.87 54.61 54.07 52.72 52.58 52.58 51.39 49.50 47.46
39.19 38.18 41.48 42.41 40.40 42.51 41.53 38.22 31.94 31.05 31.94 29.77 34.14 34.02 36.38 39.98 42.67 42.69 42.59 44.15 46.06 47.24 47.43 47.87 48.70 49.94 51.21 51.38 51.59 51.50 51.05 51.28 52.83 53.21 53.33 53.71 54.25 53.87 52.90 52.38 52.12 52.04 50.90 47.98
32.66 30.29 36.79 40.23 38.88 38.45 38.39 37.37 32.30 25.78 27.25 30.40 33.55 30.89 34.55 40.93 43.32 43.24 43.72 44.97 45.75 45.65 46.49 46.87 47.61 48.39 49.33 50.26 51.18 51.18 50.81 50.73 51.57 52.03 52.17 53.13 53.52 53.79 52.38 52.05 51.80 51.76 51.66 50.95
33.05 31.40 37.83 38.96 40.51 39.95 37.34 35.05 38.34 31.91 30.03 29.59 32.44 34.87 38.32 40.40 40.13 41.84 42.74 43.68 43.94 44.52 45.24 45.84 46.96 47.52 47.64 48.21 48.91 49.53 49.18 49.28 50.12 50.74 51.22 51.48 52.35 52.42 52.30 52.43 51.79 51.19 51.83 51.01
35.88 29.44 35.12 38.17 40.48 40.86 38.44 40.23 32.96 34.15 25.67 23.67 29.09 30.76 33.97 35.73 38.13 40.96 41.67 42.29 43.37 44.64 44.74 45.24 45.74 46.11 46.80 47.29 47.71 48.11 48.09 47.58 48.13 48.66 49.12 49.39 50.12 50.99 51.60 51.65 51.14 50.70 50.66 50.70
37.39 35.03 32.18 36.29 35.01 35.07 35.55 34.08 34.34 35.41 32.55 26.10 24.80 29.83 40.33 38.89 40.69 40.69 41.22 41.89 43.57 43.85 44.09 44.27 44.78 45.51 45.55 45.19 44.80 45.09 45.51 45.51 45.62 46.07 46.55 47.22 48.03 48.92 49.34 49.47 49.82 49.97 49.95 49.65
37.52 35.43 30.74 32.41 35.76 36.18 36.89 37.09 37.06 30.61 27.59 31.58 29.94 30.67 40.38 42.58 42.47 41.11 41.59 42.94 44.09 43.61 43.55 44.02 44.40 43.90 42.52 41.48 41.89 42.08 43.03 43.60 44.23 44.35 44.35 44.58 45.50 46.23 46.50 47.22 48.05 48.80 48.33 48.70
38.01 34.00 27.69 27.75 32.53 35.33 33.99 36.64 38.33 37.32 35.94 29.79 27.39 31.69 39.87 41.83 41.48 41.87 41.93 43.25 43.35 42.49 42.74 42.83 43.03 41.27 40.29 40.35 40.64 40.99 41.64 41.96 42.93 43.31 43.19 43.23 43.57 43.80 44.21 44.97 45.69 46.28 46.44 46.35
39.50 33.76 31.49 28.47 29.97 34.25 30.47 33.48 36.89 35.99 30.41 30.98 31.61 34.13 37.62 38.79 39.81 41.63 42.96 42.94 42.05 41.64 41.33 41.17 40.91 39.51 39.91 40.05 40.02 40.32 41.00 41.63 41.97 42.32 42.19 42.09 42.62 42.78 42.80 43.23 43.46 43.48 44.05 44.05
37.76 31.89 31.15 31.68 32.46 33.13 32.80 32.72 33.32 32.65 33.82 29.61 33.23 33.84 37.77 40.28 41.16 41.67 42.18 41.24 40.07 39.24 39.41 40.24 37.95 38.47 38.99 39.20 39.88 40.27 40.60 40.83 41.16 40.58 40.71 41.06 42.03 41.79 41.25 41.02 41.52 41.86 41.59 41.82
36.97 30.07 31.35 27.29 31.79 31.53 29.21 32.77 33.68 33.61 33.72 33.73 34.21 33.31 40.04 41.58 42.10 40.36 39.76 39.18 37.99 38.20 38.83 39.81 37.87 38.14 38.42 38.64 38.95 39.35 39.70 39.97 39.91 39.15 39.04 40.15 40.40 40.14 39.86 39.98 40.02 40.22 39.95 40.07
34.22 31.66 31.02 26.51 25.78 26.67 25.59 29.07 31.50 33.77 35.65 34.79 30.61 35.96 39.03 36.92 37.05 37.54 38.37 38.92 37.43 37.87 38.86 40.08 38.19 38.64 39.39 38.56 39.13 38.62 38.94 39.60 38.42 37.74 38.38 38.64 38.75 38.13 38.59 39.20 38.72 38.24 38.42 38.93
30.59 31.91 32.57 23.85 23.32 19.23 31.57 31.73 31.26 32.78 35.25 37.07 36.22 37.33 38.06 37.70 38.40 39.26 40.22 37.97 37.90 38.11 38.81 40.21 39.41 39.64 38.69 38.90 38.92 38.88 38.45 37.86 37.15 36.69 37.10 37.68 37.29 36.64 36.96 37.43 36.60 36.87 37.81 37.35
34.58 33.30 24.86 24.01 23.44 26.95 31.92 30.72 28.31 27.44 30.90 35.32 35.75 37.30 38.08 38.34 35.42 35.01 38.32 39.20 38.96 38.95 39.49 39.69 40.46 39.75 37.98 37.94 38.48 37.92 36.84 36.38 35.83 35.21 35.72 36.10 36.03 35.06 34.64 34.38 34.69 35.64 36.26 36.23
30.22 34.01 32.59 23.06 21.04 19.85 30.72 30.55 34.54 34.31 25.91 36.74 36.88 36.19 36.10 34.30 29.61 34.51 38.39 39.08 39.31 40.06 39.75 38.77 39.19 37.99 37.10 37.54 37.93 35.75 34.54 34.56 34.05 34.61 35.03 35.24 34.62 33.99 33.52 33.64 33.53 34.36 35.14 33.87
27.24 29.30 27.32 24.39 22.96 27.14 33.53 31.45 33.61 25.47 30.96 34.08 36.91 36.78 36.08 32.50 35.64 38.11 38.48 38.09 39.71 39.31 38.46 37.78 36.90 35.98 36.57 36.95 35.76 33.78 33.73 32.94 34.51 34.82 33.96 33.29 33.26 32.71 33.27 32.96 32.83 32.55 32.54 32.50
27.03 26.28 25.76 26.76 21.99 19.58 33.71 29.83 29.30 35.03 34.69 34.84 36.20 36.18 35.51 36.52 37.43 38.00 37.67 37.29 37.52 37.17 36.67 36.66 35.63 34.85 35.72 35.57 34.51 33.00 32.39 34.03 34.40 33.83 32.56 31.69 31.31 31.22 31.14 30.82 30.97 30.92 31.18 30.70
25.80 31.28 28.21 28.80 28.21 33.49 33.80 34.26 35.67 35.80 35.16 35.49 35.88 36.76 36.47 36.30 36.46 36.88 36.18 36.53 36.60 36.04 34.54 34.76 34.34 33.66 34.33 34.32 33.40 31.50 32.52 33.31 32.27 30.99 29.57 29.38 29.67 30.02 30.26 29.81 29.45 29.54 30.15 29.84
24.89 25.17 27.25 28.09 31.49 30.94 31.74 35.15 34.62 34.84 34.64 37.08 37.08 37.58 36.85 35.19 35.38 34.03 34.09 33.85 33.50 33.83 33.52 34.06 33.28 32.27 32.24 33.61 32.20 32.74 32.99 32.22 29.14 28.40 28.63 28.97 28.45 28.91 29.44 29.98 30.10 29.58 29.21 29.20
26.94 25.41 25.77 25.50 27.94 27.01 31.20 33.19 35.02 35.75 34.57 33.88 34.94 34.67 34.60 34.66 33.26 33.09 32.47 32.23 32.85 32.81 32.60 32.85 32.25 31.77 31.75 32.58 32.24 32.68 31.52 30.26 28.58 28.28 28.21 28.17 28.55 28.47 28.78 29.50 29.90 29.56 30.24 30.33
25.42 26.33 25.49 27.72 29.87 31.81 35.40 34.97 34.88 33.45 32.89 33.66 32.72 31.93 32.27 31.96 31.92 32.30 31.71 32.49 32.27 31.86 31.97 31.25 31.13 30.72 30.97 31.26 30.85 30.81 30.19 28.69 27.51 27.15 27.25 27.85 27.97 28.05 27.96 28.09 28.59 32.20 32.34 32.07
MSLP
1016.23 1016.14 1015.41 1015.11 1014.98 1013.87 1013.74 1013.66 1013.69 1014.48 1015.01 1014.73 1014.31 1014.33 1014.61 1014.54 1014.82 1014.89 1014.63 1014.66 1014.78 1014.93 1015.17 1015.51 1015.87 1016.50 1017.09 1017.42 1017.74 1018.00 1018.57 1019.03 1019.59 1020.04 1020.20 1020.53 1020.70 1021.01 1021.30 1021.29 1021.11 1021.10 1021.04 1021.35
1016.54 1016.44 1016.17 1015.31 1015.02 1014.12 1013.94 1013.77 1014.48 1015.13 1015.28 1015.05 1014.93 1015.18 1015.71 1015.55 1015.47 1015.42 1015.21 1015.11 1015.20 1015.30 1015.46 1015.84 1016.33 1016.64 1017.00 1017.18 1017.45 1017.87 1018.14 1018.62 1019.15 1019.63 1019.93 1019.84 1020.07 1020.58 1021.02 1020.95 1020.92 1020.95 1020.95 1020.92
1016.17 1017.15 1016.22 1015.48 1015.28 1014.77 1014.72 1014.10 1014.46 1014.67 1015.36 1015.79 1015.80 1016.07 1015.91 1016.28 1016.06 1016.15 1016.05 1016.22 1016.39 1016.42 1016.56 1016.73 1016.80 1016.77 1016.96 1017.13 1017.47 1017.82 1018.22 1018.49 1018.88 1019.35 1019.57 1019.77 1020.25 1020.64 1020.84 1020.71 1020.64 1020.57 1020.74 1020.81
1016.97 1016.87 1016.26 1015.93 1015.47 1014.46 1014.58 1014.46 1014.47 1014.86 1015.41 1015.79 1016.27 1016.49 1016.53 1016.44 1016.48 1016.71 1016.86 1016.81 1016.94 1017.09 1017.44 1017.60 1017.47 1017.61 1017.75 1017.63 1017.78 1018.03 1018.29 1018.51 1018.73 1019.18 1019.33 1019.42 1019.75 1019.67 1019.39 1019.40 1019.40 1019.90 1020.41 1020.36
1017.54 1017.00 1016.31 1016.15 1015.81 1014.61 1015.12 1014.99 1014.99 1015.07 1015.31 1015.64 1016.38 1016.28 1016.79 1016.70 1017.03 1017.44 1017.44 1017.45 1017.73 1017.88 1017.97 1018.01 1018.06 1018.31 1018.37 1018.06 1018.41 1018.50 1018.54 1018.67 1018.89 1019.06 1019.11 1019.09 1019.11 1019.13 1019.00 1019.12 1019.12 1019.66 1019.92 1019.92
1016.29 1016.55 1016.47 1016.22 1016.09 1015.24 1015.49 1015.46 1015.58 1015.83 1015.84 1016.23 1017.03 1016.85 1017.04 1017.03 1017.87 1017.93 1018.24 1018.36 1018.42 1018.41 1018.32 1018.29 1018.41 1018.41 1018.32 1018.42 1018.68 1018.72 1018.68 1018.61 1018.62 1018.75 1018.93 1018.94 1018.86 1018.83 1018.79 1018.80 1018.80 1019.26 1019.49 1019.42
1016.25 1016.81 1016.80 1016.52 1016.28 1016.26 1015.88 1015.60 1015.97 1016.32 1016.36 1017.09 1017.64 1017.15 1017.51 1017.94 1017.97 1018.33 1018.67 1018.67 1018.75 1018.60 1018.51 1018.41 1018.53 1018.52 1018.59 1018.69 1018.91 1018.91 1018.83 1018.70 1018.54 1018.52 1018.48 1018.45 1018.26 1018.29 1018.36 1018.27 1018.21 1018.29 1018.37 1018.71
1017.45 1018.34 1018.17 1017.92 1017.48 1016.81 1016.71 1016.45 1015.98 1016.29 1016.87 1017.31 1017.91 1017.37 1018.07 1018.49 1018.70 1018.99 1018.93 1018.86 1018.75 1018.85 1018.47 1018.50 1018.68 1018.65 1018.53 1018.56 1018.69 1018.75 1018.75 1018.84 1018.83 1018.84 1018.79 1018.68 1018.35 1018.16 1018.22 1018.22 1018.13 1017.82 1017.75 1017.81
1017.73 1018.79 1018.91 1018.62 1018.20 1017.94 1017.44 1017.20 1017.50 1017.27 1018.32 1017.73 1017.38 1017.84 1018.45 1018.74 1019.07 1018.97 1018.89 1019.11 1019.08 1018.92 1018.56 1018.63 1018.59 1018.89 1019.02 1019.02 1018.98 1018.95 1018.97 1018.89 1018.82 1018.92 1018.81 1018.58 1018.36 1018.32 1018.06 1017.90 1017.89 1017.66 1017.50 1017.43
1017.75 1018.55 1019.10 1019.04 1018.83 1018.59 1018.29 1018.25 1018.20 1017.80 1017.86 1017.54 1017.38 1017.09 1016.67 1017.87 1018.19 1018.47 1018.58 1018.86 1018.86 1018.74 1018.83 1019.04 1019.16 1019.24 1019.22 1019.27 1019.26 1019.12 1018.98 1018.97 1019.02 1019.02 1018.86 1018.57 1018.34 1018.06 1017.86 1017.66 1017.37 1017.33 1017.19 1017.13
1017.65 1017.94 1019.66 1019.59 1019.22 1019.10 1019.37 1018.92 1018.75 1018.16 1018.01 1017.50 1017.13 1015.99 1015.17 1016.26 1017.13 1017.68 1018.26 1018.58 1018.41 1018.50 1018.64 1019.08 1019.36 1019.49 1019.58 1019.56 1019.49 1019.35 1019.25 1019.13 1019.10 1019.04 1018.85 1018.61 1018.36 1018.03 1017.69 1017.36 1017.04 1016.78 1016.59 1016.49
1018.04 1018.26 1019.27 1019.60 1019.85 1019.87 1019.17 1018.27 1017.89 1017.62 1018.15 1017.67 1017.25 1016.19 1015.50 1015.85 1016.50 1017.47 1017.53 1017.84 1018.15 1018.58 1018.65 1019.06 1019.47 1019.66 1019.80 1019.82 1019.65 1019.40 1019.18 1019.10 1018.95 1018.85 1018.69 1018.41 1018.15 1017.89 1017.42 1016.91 1016.55 1016.30 1015.91 1015.78
1018.11 1018.78 1019.36 1019.82 1019.93 1019.52 1018.98 1018.48 1017.93 1017.97 1017.81 1017.61 1017.18 1015.94 1015.89 1015.95 1016.52 1016.89 1017.12 1017.50 1018.03 1018.19 1018.49 1019.07 1019.53 1019.74 1019.80 1019.79 1019.61 1019.41 1019.17 1019.00 1018.75 1018.57 1018.46 1018.07 1017.68 1017.29 1016.94 1016.40 1015.99 1015.78 1015.53 1015.24
1018.25 1018.58 1018.75 1018.91 1018.87 1018.69 1018.96 1018.50 1018.35 1017.95 1017.69 1017.01 1016.00 1015.59 1015.51 1015.63 1015.82 1016.31 1016.39 1017.03 1017.78 1018.34 1018.87 1019.28 1019.48 1019.73 1019.75 1019.66 1019.49 1019.31 1019.04 1018.81 1018.67 1018.52 1018.28 1017.87 1017.43 1017.07 1016.61 1016.24 1015.84 1015.44 1015.10 1014.68
1019.11 1019.43 1019.70 1019.94 1019.88 1019.56 1019.20 1018.79 1018.45 1017.90 1017.22 1016.68 1015.37 1015.11 1015.00 1014.69 1015.09 1015.75 1016.73 1017.59 1018.10 1018.41 1018.85 1019.26 1019.60 1019.73 1019.74 1019.65 1019.22 1018.88 1018.90 1018.78 1018.63 1018.38 1018.05 1017.78 1017.44 1016.87 1016.43 1015.93 1015.40 1015.14 1014.75 1014.22
1019.87 1020.63 1020.75 1021.34 1020.94 1020.67 1020.15 1019.38 1018.55 1017.94 1017.39 1016.35 1016.23 1014.83 1015.52 1015.39 1015.70 1016.38 1017.07 1017.58 1017.85 1018.25 1018.60 1019.03 1019.44 1019.58 1019.48 1019.29 1018.91 1019.00 1018.62 1018.45 1018.27 1017.85 1017.54 1017.08 1016.69 1016.21 1016.04 1015.49 1014.95 1014.54 1014.15 1013.60
1020.72 1021.29 1021.72 1022.38 1022.22 1021.67 1020.57 1017.93 1017.51 1017.28 1016.67 1016.13 1015.98 1015.04 1015.53 1016.01 1016.42 1016.84 1017.21 1017.47 1017.64 1018.12 1018.41 1018.62 1018.88 1019.10 1019.18 1019.13 1019.02 1018.77 1018.39 1017.96 1017.75 1017.39 1016.85 1016.54 1016.25 1015.70 1015.18 1014.91 1014.49 1014.08 1013.51 1013.07
1021.22 1021.56 1021.90 1022.98 1022.73 1021.05 1017.24 1017.23 1017.23 1016.59 1015.76 1015.61 1015.20 1015.15 1015.57 1016.35 1016.76 1017.13 1017.39 1017.59 1017.71 1017.90 1018.00 1018.20 1018.62 1018.75 1018.91 1018.91 1018.73 1018.38 1018.12 1017.88 1017.53 1017.11 1016.69 1016.26 1015.86 1015.23 1014.85 1014.32 1013.89 1013.40 1012.99 1012.51
1021.48 1021.35 1022.43 1022.71 1022.04 1019.32 1016.16 1016.33 1016.78 1016.40 1014.48 1013.99 1014.11 1014.93 1015.62 1016.27 1017.17 1016.65 1016.72 1017.22 1017.39 1017.52 1017.81 1017.92 1018.07 1018.42 1018.55 1018.39 1018.25 1018.09 1017.76 1017.54 1017.23 1016.58 1016.34 1015.81 1015.36 1014.85 1014.47 1013.97 1013.21 1012.51 1012.15 1011.77
1022.11 1021.62 1021.57 1022.74 1021.54 1019.35 1016.60 1016.59 1016.24 1016.16 1014.62 1012.80 1013.25 1014.05 1015.06 1016.21 1016.28 1015.69 1016.34 1016.76 1017.15 1017.71 1017.73 1017.55 1017.76 1018.37 1018.41 1017.94 1017.72 1017.77 1017.27 1016.91 1016.49 1016.24 1015.82 1015.48 1015.22 1014.79 1014.04 1013.45 1012.80 1012.08 1011.50 1011.01
1022.00 1021.89 1021.36 1021.87 1020.98 1018.10 1015.98 1016.52 1016.65 1016.21 1013.85 1013.14 1013.10 1013.82 1014.66 1015.26 1015.09 1015.40 1015.94 1016.41 1016.73 1017.60 1017.70 1017.37 1017.44 1017.79 1017.66 1017.22 1017.11 1016.95 1016.51 1015.92 1015.69 1015.42 1015.11 1014.81 1014.50 1014.02 1013.46 1012.70 1012.22 1011.61 1010.88 1010.35
1019.92 1020.49 1020.71 1021.25 1020.92 1017.87 1015.26 1016.51 1015.62 1013.49 1013.30 1013.39 1013.66 1014.25 1014.80 1014.96 1015.19 1015.44 1015.95 1016.21 1016.50 1017.15 1017.13 1017.09 1017.13 1017.03 1017.02 1016.74 1016.69 1016.20 1015.51 1014.80 1014.91 1014.74 1014.52 1014.16 1013.78 1013.42 1012.92 1012.32 1011.45 1011.11 1010.33 1009.56
1019.33 1017.41 1017.55 1017.44 1016.00 1015.13 1014.14 1013.58 1013.68 1013.47 1013.71 1013.92 1013.77 1014.30 1014.79 1015.20 1015.39 1015.39 1015.63 1015.91 1016.25 1016.51 1016.61 1016.55 1016.52 1016.23 1016.12 1016.14 1016.15 1015.61 1014.40 1014.56 1014.30 1014.14 1013.95 1013.64 1013.07 1012.42 1011.95 1011.56 1010.60 1010.01 1009.53 1008.79
1017.98 1017.52 1016.90 1016.53 1014.25 1014.43 1014.38 1013.90 1014.06 1014.22 1014.38 1014.21 1014.32 1014.68 1015.08 1015.43 1015.55 1015.58 1015.75 1015.86 1016.10 1016.19 1016.21 1016.15 1016.06 1015.70 1015.31 1015.44 1015.34 1014.87 1014.20 1014.07 1013.87 1013.58 1013.22 1012.79 1012.27 1011.28 1010.81 1010.31 1009.80 1009.12 1008.49 1008.06
1015.47 1016.09 1015.80 1014.81 1013.90 1013.97 1013.61 1013.48 1013.29 1013.87 1014.50 1014.62 1014.62 1015.07 1015.50 1015.81 1015.81 1015.67 1015.53 1015.70 1015.92 1016.01 1015.90 1015.77 1015.55 1015.14 1014.94 1015.05 1014.77 1014.13 1013.77 1013.84 1013.53 1012.94 1012.35 1011.75 1011.36 1010.54 1009.55 1009.00 1008.49 1007.89 1007.17 1006.96
1013.73 1013.04 1013.12 1011.40 1011.49 1011.17 1011.03 1011.51 1012.23 1013.56 1013.83 1013.98 1014.56 1015.00 1015.41 1015.95 1016.04 1015.99 1015.71 1015.62 1015.61 1015.55 1015.47 1015.28 1015.11 1015.04 1014.68 1014.55 1014.33 1013.60 1013.57 1013.59 1013.21 1012.32 1011.56 1010.93 1010.40 1009.74 1009.03 1008.20 1007.01 1006.68 1006.14 1005.88
Wind_Speed
2 3 3 14 0 3 9 8 10 7 4 2 1 3 6 5 4 8 8 8 7 6 7 7 9 10 11 10 10 10 11 10 7 6 5 5 5 5 3 3 5 5 5 5
2 2 5 4 2 8 6 13 6 6 4 3 3 7 7 9 7 8 8 8 8 7 7 6 8 9 12 12 11 10 10 10 9 6 6 5 2 3 4 4 5 7 6 6
7 4 8 3 4 9 5 6 8 5 5 2 2 6 8 11 12 12 12 9 8 8 7 6 7 8 8 9 9 9 9 9 9 8 5 4 2 3 4 6 7 8 8 7
7 6 4 1 7 7 6 6 8 9 6 3 4 5 7 9 12 13 11 10 9 10 8 8 9 9 7 7 7 8 8 9 8 9 8 9 8 8 7 7 6 6 10 9
4 4 8 6 5 6 7 5 8 4 2 5 4 1 7 3 11 13 14 15 13 11 10 10 10 9 7 7 5 5 6 8 8 8 11 9 11 9 7 5 8 9 9 10
7 3 4 5 9 9 12 9 7 2 1 2 2 2 5 3 7 11 12 13 13 13 13 13 10 8 8 5 3 3 4 6 8 9 11 13 13 11 9 9 7 7 7 7
9 8 4 5 6 3 1 3 3 2 2 2 2 2 7 10 13 11 9 9 11 12 12 12 10 8 6 7 6 5 5 6 7 9 11 13 13 12 12 12 10 10 7 7
4 3 7 7 4 4 3 3 2 1 4 5 2 5 6 9 8 5 4 6 9 10 10 10 8 7 7 7 7 7 7 7 7 9 11 11 12 8 10 11 9 8 8 8
7 3 2 5 4 5 2 1 3 5 1 1 3 6 4 7 9 4 4 6 7 9 10 11 10 9 9 10 10 10 10 9 9 9 9 11 10 12 11 13 12 10 12 8
3 5 2 1 1 5 4 3 2 1 3 3 4 4 6 16 16 8 5 3 5 8 10 9 8 8 8 9 9 10 10 11 10 10 9 9 11 11 11 11 13 14 13 14
3 3 3 2 4 7 2 1 1 2 2 2 1 3 9 17 16 10 4 1 6 9 10 7 6 9 10 11 11 11 11 12 11 10 10 10 10 11 11 11 12 12 12 12
1 3 4 2 3 1 3 2 4 3 4 0 1 4 5 13 14 6 3 2 7 7 8 7 8 7 7 9 10 11 11 10 9 10 10 10 10 11 11 11 13 13 14 12
7 2 5 1 0 2 4 4 5 2 1 7 6 4 6 10 12 10 7 6 8 8 9 7 6 5 6 8 9 10 10 9 9 9 10 10 11 11 11 11 11 12 13 14
2 2 1 2 4 5 6 10 11 9 5 5 10 6 10 13 14 15 7 9 8 7 7 6 3 5 7 8 11 12 12 12 11 11 11 12 12 11 11 12 12 12 12 13
1 3 3 6 5 2 4 9 13 17 13 10 5 14 13 13 12 9 8 4 5 8 4 3 3 5 8 10 13 12 12 11 11 12 12 13 14 13 12 11 11 12 12 12
1 3 2 3 4 5 4 10 14 16 16 19 16 23 14 16 11 5 5 5 7 6 5 6 5 6 8 12 13 11 12 12 10 12 13 13 12 13 13 12 12 11 12 12
4 6 3 4 3 3 9 21 22 17 16 16 18 13 7 3 4 6 8 8 7 6 6 8 7 8 8 11 11 12 14 14 14 14 14 14 14 14 13 13 12 12 12 12
6 4 2 3 2 6 2 3 2 17 18 18 17 11 7 5 5 8 9 10 8 6 7 8 8 9 11 10 11 12 13 14 14 15 15 14 14 14 14 13 13 14 12 12
3 4 4 4 5 11 10 7 8 8 7 21 24 16 15 6 4 10 10 10 9 5 5 7 8 9 11 12 11 12 13 14 14 15 15 14 13 15 15 15 14 13 12 12
1 3 2 3 5 9 1 4 6 5 11 9 16 13 12 12 6 5 10 9 9 8 7 7 7 9 11 12 10 11 13 13 14 14 14 13 13 14 15 15 15 13 12 12
7 5 11 7 7 8 8 9 4 6 4 4 7 9 10 8 6 2 3 6 7 7 10 10 8 10 13 12 9 11 13 16 14 13 13 12 12 14 15 15 13 13 12 12
14 12 8 8 9 15 13 9 11 3 2 6 7 7 6 7 8 6 7 8 9 10 9 9 9 11 12 10 8 12 15 14 12 13 14 13 14 12 12 15 13 13 12 12
9 9 11 16 11 0 21 2 8 3 5 5 7 6 9 7 8 9 9 9 9 10 7 8 10 12 11 11 7 13 17 12 12 12 13 14 15 14 13 14 14 10 11 10
7 3 4 3 10 14 11 15 4 3 7 2 4 4 4 8 8 7 6 7 8 8 9 9 10 13 16 12 10 13 15 12 9 12 15 14 14 15 13 11 10 10 9 9
4 16 10 7 8 3 11 18 18 15 10 8 7 7 9 7 10 9 9 7 8 9 9 9 11 14 15 13 14 15 12 9 11 13 14 15 12 13 13 12 11 11 11 11
10 9 12 8 9 8 7 13 19 14 13 15 10 7 9 8 12 9 9 8 9 10 11 12 13 13 15 14 15 16 10 8 12 15 13 12 11 12 12 12 13 17 21 22
Wind_Direction
82 215 178 158 69 184 144 135 121 98 83 255 182 317 321 303 253 275 270 269 265 264 272 259 245 227 230 233 229 219 214 215 203 209 207 225 230 219 220 239 238 230 205 214
112 60 358 105 109 91 129 116 100 95 77 291 77 27 57 35 13 345 328 323 323 312 293 263 269 258 245 243 238 242 240 231 219 222 225 248 261 239 230 222 230 236 234 220
79 22 335 13 151 116 39 146 150 120 125 92 327 89 77 81 64 57 61 54 41 30 6 343 318 295 286 273 263 262 259 255 249 236 251 242 260 262 233 232 232 224 228 227
49 330 31 31 127 165 114 66 108 127 174 164 344 131 88 111 67 41 34 40 32 30 15 17 16 7 354 339 321 291 272 263 251 246 240 241 241 248 237 233 227 217 221 220
130 107 105 86 9 1 110 100 91 86 133 178 34 131 136 179 54 57 61 51 44 41 40 42 38 30 28 24 349 310 288 268 255 241 243 248 250 259 260 249 232 233 223 220
102 151 48 68 50 87 127 104 85 93 244 135 53 312 140 62 102 87 65 55 56 62 63 59 52 38 33 29 9 327 286 265 249 242 243 247 253 258 261 256 243 243 238 225
30 31 26 17 81 89 110 170 114 140 155 75 45 269 73 112 118 90 74 61 68 66 59 48 39 28 18 17 10 357 325 294 264 245 243 245 246 251 252 254 253 246 238 231
95 121 3 343 24 19 57 334 325 168 168 128 182 153 132 123 132 102 76 81 75 51 36 35 30 16 6 357 350 350 342 320 299 278 273 270 267 263 259 260 258 263 251 250
150 142 306 30 346 337 96 44 9 97 37 228 121 106 124 184 177 190 130 107 54 23 19 14 23 22 12 2 355 349 339 332 327 310 298 288 282 273 272 269 269 271 269 261
136 105 14 336 335 52 2 84 158 313 147 186 148 220 156 188 190 194 147 100 23 14 14 23 24 19 12 2 353 350 347 339 333 323 312 302 296 288 282 278 276 275 271 270
166 127 152 170 199 170 155 283 7 53 348 169 193 221 154 181 181 187 148 39 355 9 12 29 16 13 21 19 11 1 359 353 350 342 328 315 302 294 287 280 276 272 272 270
165 115 150 132 114 266 281 233 216 221 188 197 8 260 162 173 179 167 195 212 358 11 24 28 24 34 23 11 2 352 348 342 337 329 322 311 302 298 291 283 279 277 270 266
176 192 122 106 225 187 228 193 208 143 116 194 173 219 205 178 188 206 228 304 342 11 12 356 8 13 4 358 351 343 332 321 315 315 310 304 299 297 290 285 281 277 276 270
187 137 246 179 92 135 190 196 199 198 190 200 218 169 187 198 211 224 289 334 346 339 336 340 357 350 347 342 340 331 323 327 323 320 316 307 303 299 294 293 289 284 276 270
288 119 83 57 64 353 241 197 196 213 215 213 205 224 230 233 245 282 332 318 307 310 312 274 287 323 331 332 329 335 335 326 323 319 309 303 308 302 291 284 282 280 275 272
53 115 91 39 4 7 306 264 235 231 239 255 258 272 283 260 269 254 219 263 283 289 288 249 263 301 330 328 337 328 322 312 311 299 295 297 294 290 286 281 279 279 276 273
130 144 166 155 336 306 272 229 226 233 236 235 237 246 208 133 163 226 250 250 260 251 261 249 258 296 316 328 314 312 309 309 304 303 300 295 293 289 286 284 286 279 273 274
141 117 39 123 246 226 220 157 247 235 243 228 245 240 181 250 242 234 236 251 238 239 266 269 259 289 313 303 297 300 304 303 300 297 297 298 298 299 298 292 285 288 282 272
312 133 116 174 216 314 290 176 180 184 264 215 235 234 237 234 182 248 222 212 219 254 271 282 283 291 295 288 293 293 293 292 291 294 294 296 297 297 298 291 287 284 281 276
289 290 161 168 222 224 307 144 140 148 278 206 203 213 202 156 218 274 165 200 221 228 255 276 275 277 269 272 279 289 283 286 284 286 291 295 292 288 286 289 290 286 278 273
159 161 202 196 251 271 241 154 184 147 237 114 152 169 162 190 228 310 140 232 227 253 270 279 270 261 262 273 274 269 277 273 279 284 289 290 288 285 283 284 281 280 276 273
175 168 181 190 225 257 152 128 195 169 72 136 141 149 183 219 232 225 244 256 263 266 268 261 264 263 263 265 268 273 273 278 283 284 287 288 289 287 283 279 277 275 269 266
203 195 175 193 205 4 183 171 211 53 154 192 169 185 207 230 227 237 260 270 271 275 270 268 269 277 277 276 260 272 274 287 284 282 282 284 286 284 279 275 273 273 268 261
218 171 220 129 220 220 227 238 178 254 242 198 228 240 211 239 251 257 257 269 271 272 275 280 280 277 281 281 274 265 280 289 284 278 280 280 275 278 275 268 263 261 254 258
176 148 175 255 266 311 223 222 232 227 226 253 240 234 252 257 263 264 270 266 267 274 276 274 278 281 284 288 282 281 286 287 279 279 278 279 276 279 283 273 269 260 254 247
186 174 189 221 184 208 238 196 212 211 215 227 232 249 245 242 257 265 268 273 278 281 282 279 281 284 283 285 284 282 286 274 276 283 284 281 285 286 285 284 283 265 258 256